Index of /20260501/WXO-DD/model_rdps/10km/06/066
Name Last modified Size Description
Parent Directory -
20260501T06Z_MSC_RDPS_AbsoluteVorticity_IsbL-0250_RLatLon0.09_PT066H.grib2 2026-05-01 08:58 618K
20260501T06Z_MSC_RDPS_AbsoluteVorticity_IsbL-0500_RLatLon0.09_PT066H.grib2 2026-05-01 08:58 570K
20260501T06Z_MSC_RDPS_AbsoluteVorticity_IsbL-0700_RLatLon0.09_PT066H.grib2 2026-05-01 08:58 617K
20260501T06Z_MSC_RDPS_AbsoluteVorticity_IsbL-0850_RLatLon0.09_PT066H.grib2 2026-05-01 08:58 777K
20260501T06Z_MSC_RDPS_AirTemp_AGL-120m_RLatLon0.09_PT066H.grib2 2026-05-01 08:58 386K
20260501T06Z_MSC_RDPS_AirTemp_AGL-2m_RLatLon0.09_PT066H.grib2 2026-05-01 08:58 622K
20260501T06Z_MSC_RDPS_AirTemp_AGL-40m_RLatLon0.09_PT066H.grib2 2026-05-01 08:58 395K
20260501T06Z_MSC_RDPS_AirTemp_AGL-80m_RLatLon0.09_PT066H.grib2 2026-05-01 08:58 389K
20260501T06Z_MSC_RDPS_AirTemp_IsbL-0001_RLatLon0.09_PT066H.grib2 2026-05-01 08:58 265K
20260501T06Z_MSC_RDPS_AirTemp_IsbL-0005_RLatLon0.09_PT066H.grib2 2026-05-01 08:58 290K
20260501T06Z_MSC_RDPS_AirTemp_IsbL-0010_RLatLon0.09_PT066H.grib2 2026-05-01 08:58 298K
20260501T06Z_MSC_RDPS_AirTemp_IsbL-0020_RLatLon0.09_PT066H.grib2 2026-05-01 08:58 409K
20260501T06Z_MSC_RDPS_AirTemp_IsbL-0030_RLatLon0.09_PT066H.grib2 2026-05-01 08:58 341K
20260501T06Z_MSC_RDPS_AirTemp_IsbL-0050_RLatLon0.09_PT066H.grib2 2026-05-01 08:58 315K
20260501T06Z_MSC_RDPS_AirTemp_IsbL-0100_RLatLon0.09_PT066H.grib2 2026-05-01 08:58 426K
20260501T06Z_MSC_RDPS_AirTemp_IsbL-0150_RLatLon0.09_PT066H.grib2 2026-05-01 08:58 419K
20260501T06Z_MSC_RDPS_AirTemp_IsbL-0175_RLatLon0.09_PT066H.grib2 2026-05-01 08:58 409K
20260501T06Z_MSC_RDPS_AirTemp_IsbL-0200_RLatLon0.09_PT066H.grib2 2026-05-01 08:58 416K
20260501T06Z_MSC_RDPS_AirTemp_IsbL-0225_RLatLon0.09_PT066H.grib2 2026-05-01 08:58 422K
20260501T06Z_MSC_RDPS_AirTemp_IsbL-0250_RLatLon0.09_PT066H.grib2 2026-05-01 08:58 426K
20260501T06Z_MSC_RDPS_AirTemp_IsbL-0275_RLatLon0.09_PT066H.grib2 2026-05-01 08:58 404K
20260501T06Z_MSC_RDPS_AirTemp_IsbL-0300_RLatLon0.09_PT066H.grib2 2026-05-01 08:58 409K
20260501T06Z_MSC_RDPS_AirTemp_IsbL-0350_RLatLon0.09_PT066H.grib2 2026-05-01 08:58 424K
20260501T06Z_MSC_RDPS_AirTemp_IsbL-0400_RLatLon0.09_PT066H.grib2 2026-05-01 08:58 429K
20260501T06Z_MSC_RDPS_AirTemp_IsbL-0450_RLatLon0.09_PT066H.grib2 2026-05-01 08:58 437K
20260501T06Z_MSC_RDPS_AirTemp_IsbL-0500_RLatLon0.09_PT066H.grib2 2026-05-01 08:58 412K
20260501T06Z_MSC_RDPS_AirTemp_IsbL-0550_RLatLon0.09_PT066H.grib2 2026-05-01 08:58 427K
20260501T06Z_MSC_RDPS_AirTemp_IsbL-0600_RLatLon0.09_PT066H.grib2 2026-05-01 08:58 445K
20260501T06Z_MSC_RDPS_AirTemp_IsbL-0650_RLatLon0.09_PT066H.grib2 2026-05-01 08:58 460K
20260501T06Z_MSC_RDPS_AirTemp_IsbL-0700_RLatLon0.09_PT066H.grib2 2026-05-01 08:58 482K
20260501T06Z_MSC_RDPS_AirTemp_IsbL-0750_RLatLon0.09_PT066H.grib2 2026-05-01 08:58 404K
20260501T06Z_MSC_RDPS_AirTemp_IsbL-0800_RLatLon0.09_PT066H.grib2 2026-05-01 08:58 446K
20260501T06Z_MSC_RDPS_AirTemp_IsbL-0850_RLatLon0.09_PT066H.grib2 2026-05-01 08:58 494K
20260501T06Z_MSC_RDPS_AirTemp_IsbL-0875_RLatLon0.09_PT066H.grib2 2026-05-01 08:58 514K
20260501T06Z_MSC_RDPS_AirTemp_IsbL-0900_RLatLon0.09_PT066H.grib2 2026-05-01 08:58 524K
20260501T06Z_MSC_RDPS_AirTemp_IsbL-0925_RLatLon0.09_PT066H.grib2 2026-05-01 08:58 519K
20260501T06Z_MSC_RDPS_AirTemp_IsbL-0950_RLatLon0.09_PT066H.grib2 2026-05-01 08:58 515K
20260501T06Z_MSC_RDPS_AirTemp_IsbL-0970_RLatLon0.09_PT066H.grib2 2026-05-01 08:58 511K
20260501T06Z_MSC_RDPS_AirTemp_IsbL-0985_RLatLon0.09_PT066H.grib2 2026-05-01 08:58 503K
20260501T06Z_MSC_RDPS_AirTemp_IsbL-1000_RLatLon0.09_PT066H.grib2 2026-05-01 08:58 489K
20260501T06Z_MSC_RDPS_AirTemp_IsbL-1015_RLatLon0.09_PT066H.grib2 2026-05-01 08:58 488K
20260501T06Z_MSC_RDPS_Albedo_Sfc_RLatLon0.09_PT066H.grib2 2026-05-01 08:58 155K
20260501T06Z_MSC_RDPS_CAPE_Sfc_RLatLon0.09_PT066H.grib2 2026-05-01 08:58 1.8M
20260501T06Z_MSC_RDPS_CIN_Sfc_RLatLon0.09_PT066H.grib2 2026-05-01 08:58 1.2M
20260501T06Z_MSC_RDPS_CloudWater_EAtm_RLatLon0.09_PT066H.grib2 2026-05-01 08:58 223K
20260501T06Z_MSC_RDPS_ConvectivePrecip-Accum_Sfc_RLatLon0.09_PT066H.grib2 2026-05-01 08:58 1.2M
20260501T06Z_MSC_RDPS_DewPointDepression_AGL-2m_RLatLon0.09_PT066H.grib2 2026-05-01 08:58 417K
20260501T06Z_MSC_RDPS_DewPointDepression_IsbL-0001_RLatLon0.09_PT066H.grib2 2026-05-01 08:58 193
20260501T06Z_MSC_RDPS_DewPointDepression_IsbL-0005_RLatLon0.09_PT066H.grib2 2026-05-01 08:58 193
20260501T06Z_MSC_RDPS_DewPointDepression_IsbL-0010_RLatLon0.09_PT066H.grib2 2026-05-01 08:58 193
20260501T06Z_MSC_RDPS_DewPointDepression_IsbL-0020_RLatLon0.09_PT066H.grib2 2026-05-01 08:58 193
20260501T06Z_MSC_RDPS_DewPointDepression_IsbL-0030_RLatLon0.09_PT066H.grib2 2026-05-01 08:58 193
20260501T06Z_MSC_RDPS_DewPointDepression_IsbL-0050_RLatLon0.09_PT066H.grib2 2026-05-01 08:58 75K
20260501T06Z_MSC_RDPS_DewPointDepression_IsbL-0100_RLatLon0.09_PT066H.grib2 2026-05-01 08:58 119K
20260501T06Z_MSC_RDPS_DewPointDepression_IsbL-0150_RLatLon0.09_PT066H.grib2 2026-05-01 08:58 144K
20260501T06Z_MSC_RDPS_DewPointDepression_IsbL-0175_RLatLon0.09_PT066H.grib2 2026-05-01 08:58 181K
20260501T06Z_MSC_RDPS_DewPointDepression_IsbL-0200_RLatLon0.09_PT066H.grib2 2026-05-01 08:58 222K
20260501T06Z_MSC_RDPS_DewPointDepression_IsbL-0225_RLatLon0.09_PT066H.grib2 2026-05-01 08:58 262K
20260501T06Z_MSC_RDPS_DewPointDepression_IsbL-0250_RLatLon0.09_PT066H.grib2 2026-05-01 08:58 301K
20260501T06Z_MSC_RDPS_DewPointDepression_IsbL-0275_RLatLon0.09_PT066H.grib2 2026-05-01 08:58 308K
20260501T06Z_MSC_RDPS_DewPointDepression_IsbL-0300_RLatLon0.09_PT066H.grib2 2026-05-01 08:58 329K
20260501T06Z_MSC_RDPS_DewPointDepression_IsbL-0350_RLatLon0.09_PT066H.grib2 2026-05-01 08:58 336K
20260501T06Z_MSC_RDPS_DewPointDepression_IsbL-0400_RLatLon0.09_PT066H.grib2 2026-05-01 08:58 344K
20260501T06Z_MSC_RDPS_DewPointDepression_IsbL-0450_RLatLon0.09_PT066H.grib2 2026-05-01 08:58 348K
20260501T06Z_MSC_RDPS_DewPointDepression_IsbL-0500_RLatLon0.09_PT066H.grib2 2026-05-01 08:58 355K
20260501T06Z_MSC_RDPS_DewPointDepression_IsbL-0550_RLatLon0.09_PT066H.grib2 2026-05-01 08:58 366K
20260501T06Z_MSC_RDPS_DewPointDepression_IsbL-0600_RLatLon0.09_PT066H.grib2 2026-05-01 08:58 373K
20260501T06Z_MSC_RDPS_DewPointDepression_IsbL-0650_RLatLon0.09_PT066H.grib2 2026-05-01 08:58 381K
20260501T06Z_MSC_RDPS_DewPointDepression_IsbL-0700_RLatLon0.09_PT066H.grib2 2026-05-01 08:58 391K
20260501T06Z_MSC_RDPS_DewPointDepression_IsbL-0750_RLatLon0.09_PT066H.grib2 2026-05-01 08:58 407K
20260501T06Z_MSC_RDPS_DewPointDepression_IsbL-0800_RLatLon0.09_PT066H.grib2 2026-05-01 08:58 444K
20260501T06Z_MSC_RDPS_DewPointDepression_IsbL-0850_RLatLon0.09_PT066H.grib2 2026-05-01 08:58 474K
20260501T06Z_MSC_RDPS_DewPointDepression_IsbL-0875_RLatLon0.09_PT066H.grib2 2026-05-01 08:58 474K
20260501T06Z_MSC_RDPS_DewPointDepression_IsbL-0900_RLatLon0.09_PT066H.grib2 2026-05-01 08:58 465K
20260501T06Z_MSC_RDPS_DewPointDepression_IsbL-0925_RLatLon0.09_PT066H.grib2 2026-05-01 08:58 451K
20260501T06Z_MSC_RDPS_DewPointDepression_IsbL-0950_RLatLon0.09_PT066H.grib2 2026-05-01 08:58 443K
20260501T06Z_MSC_RDPS_DewPointDepression_IsbL-0970_RLatLon0.09_PT066H.grib2 2026-05-01 08:58 436K
20260501T06Z_MSC_RDPS_DewPointDepression_IsbL-0985_RLatLon0.09_PT066H.grib2 2026-05-01 08:58 431K
20260501T06Z_MSC_RDPS_DewPointDepression_IsbL-1000_RLatLon0.09_PT066H.grib2 2026-05-01 08:58 426K
20260501T06Z_MSC_RDPS_DewPointDepression_IsbL-1015_RLatLon0.09_PT066H.grib2 2026-05-01 08:58 419K
20260501T06Z_MSC_RDPS_DewPoint_AGL-2m_RLatLon0.09_PT066H.grib2 2026-05-01 08:58 310K
20260501T06Z_MSC_RDPS_DownwardLongwaveRadiationFlux-Accum_Sfc_RLatLon0.09_PT066H.grib2 2026-05-01 08:58 417K
20260501T06Z_MSC_RDPS_DownwardShortwaveRadiationFlux-Accum_NTAtm_RLatLon0.09_PT066H.grib2 2026-05-01 08:58 107K
20260501T06Z_MSC_RDPS_DownwardShortwaveRadiationFlux-Accum_Sfc_RLatLon0.09_PT066H.grib2 2026-05-01 08:58 615K
20260501T06Z_MSC_RDPS_FreezingRain-Accum12h_Sfc_RLatLon0.09_PT066H.grib2 2026-05-01 08:58 55K
20260501T06Z_MSC_RDPS_FreezingRain-Accum1h_Sfc_RLatLon0.09_PT066H.grib2 2026-05-01 08:58 16K
20260501T06Z_MSC_RDPS_FreezingRain-Accum24h_Sfc_RLatLon0.09_PT066H.grib2 2026-05-01 08:58 101K
20260501T06Z_MSC_RDPS_FreezingRain-Accum3h_Sfc_RLatLon0.09_PT066H.grib2 2026-05-01 08:58 17K
20260501T06Z_MSC_RDPS_FreezingRain-Accum6h_Sfc_RLatLon0.09_PT066H.grib2 2026-05-01 08:58 24K
20260501T06Z_MSC_RDPS_FreezingRain-Accum_Sfc_RLatLon0.09_PT066H.grib2 2026-05-01 08:58 198K
20260501T06Z_MSC_RDPS_GeopotentialHeight_IsbL-0001_RLatLon0.09_PT066H.grib2 2026-05-01 08:58 311K
20260501T06Z_MSC_RDPS_GeopotentialHeight_IsbL-0005_RLatLon0.09_PT066H.grib2 2026-05-01 08:58 335K
20260501T06Z_MSC_RDPS_GeopotentialHeight_IsbL-0010_RLatLon0.09_PT066H.grib2 2026-05-01 08:58 301K
20260501T06Z_MSC_RDPS_GeopotentialHeight_IsbL-0020_RLatLon0.09_PT066H.grib2 2026-05-01 08:58 396K
20260501T06Z_MSC_RDPS_GeopotentialHeight_IsbL-0030_RLatLon0.09_PT066H.grib2 2026-05-01 08:58 304K
20260501T06Z_MSC_RDPS_GeopotentialHeight_IsbL-0050_RLatLon0.09_PT066H.grib2 2026-05-01 08:58 340K
20260501T06Z_MSC_RDPS_GeopotentialHeight_IsbL-0100_RLatLon0.09_PT066H.grib2 2026-05-01 08:58 287K
20260501T06Z_MSC_RDPS_GeopotentialHeight_IsbL-0150_RLatLon0.09_PT066H.grib2 2026-05-01 08:58 230K
20260501T06Z_MSC_RDPS_GeopotentialHeight_IsbL-0175_RLatLon0.09_PT066H.grib2 2026-05-01 08:58 233K
20260501T06Z_MSC_RDPS_GeopotentialHeight_IsbL-0200_RLatLon0.09_PT066H.grib2 2026-05-01 08:58 265K
20260501T06Z_MSC_RDPS_GeopotentialHeight_IsbL-0225_RLatLon0.09_PT066H.grib2 2026-05-01 08:58 267K
20260501T06Z_MSC_RDPS_GeopotentialHeight_IsbL-0250_RLatLon0.09_PT066H.grib2 2026-05-01 08:58 267K
20260501T06Z_MSC_RDPS_GeopotentialHeight_IsbL-0275_RLatLon0.09_PT066H.grib2 2026-05-01 08:58 266K
20260501T06Z_MSC_RDPS_GeopotentialHeight_IsbL-0300_RLatLon0.09_PT066H.grib2 2026-05-01 08:58 235K
20260501T06Z_MSC_RDPS_GeopotentialHeight_IsbL-0350_RLatLon0.09_PT066H.grib2 2026-05-01 08:58 231K
20260501T06Z_MSC_RDPS_GeopotentialHeight_IsbL-0400_RLatLon0.09_PT066H.grib2 2026-05-01 08:58 227K
20260501T06Z_MSC_RDPS_GeopotentialHeight_IsbL-0450_RLatLon0.09_PT066H.grib2 2026-05-01 08:58 297K
20260501T06Z_MSC_RDPS_GeopotentialHeight_IsbL-0500_RLatLon0.09_PT066H.grib2 2026-05-01 08:58 292K
20260501T06Z_MSC_RDPS_GeopotentialHeight_IsbL-0550_RLatLon0.09_PT066H.grib2 2026-05-01 08:58 288K
20260501T06Z_MSC_RDPS_GeopotentialHeight_IsbL-0600_RLatLon0.09_PT066H.grib2 2026-05-01 08:58 284K
20260501T06Z_MSC_RDPS_GeopotentialHeight_IsbL-0650_RLatLon0.09_PT066H.grib2 2026-05-01 08:58 284K
20260501T06Z_MSC_RDPS_GeopotentialHeight_IsbL-0700_RLatLon0.09_PT066H.grib2 2026-05-01 08:58 254K
20260501T06Z_MSC_RDPS_GeopotentialHeight_IsbL-0750_RLatLon0.09_PT066H.grib2 2026-05-01 08:58 256K
20260501T06Z_MSC_RDPS_GeopotentialHeight_IsbL-0800_RLatLon0.09_PT066H.grib2 2026-05-01 08:58 344K
20260501T06Z_MSC_RDPS_GeopotentialHeight_IsbL-0850_RLatLon0.09_PT066H.grib2 2026-05-01 08:58 352K
20260501T06Z_MSC_RDPS_GeopotentialHeight_IsbL-0875_RLatLon0.09_PT066H.grib2 2026-05-01 08:58 356K
20260501T06Z_MSC_RDPS_GeopotentialHeight_IsbL-0900_RLatLon0.09_PT066H.grib2 2026-05-01 08:58 359K
20260501T06Z_MSC_RDPS_GeopotentialHeight_IsbL-0925_RLatLon0.09_PT066H.grib2 2026-05-01 08:58 360K
20260501T06Z_MSC_RDPS_GeopotentialHeight_IsbL-0950_RLatLon0.09_PT066H.grib2 2026-05-01 08:58 364K
20260501T06Z_MSC_RDPS_GeopotentialHeight_IsbL-0970_RLatLon0.09_PT066H.grib2 2026-05-01 08:58 369K
20260501T06Z_MSC_RDPS_GeopotentialHeight_IsbL-0985_RLatLon0.09_PT066H.grib2 2026-05-01 08:58 376K
20260501T06Z_MSC_RDPS_GeopotentialHeight_IsbL-1000_RLatLon0.09_PT066H.grib2 2026-05-01 08:58 387K
20260501T06Z_MSC_RDPS_GeopotentialHeight_IsbL-1015_RLatLon0.09_PT066H.grib2 2026-05-01 08:58 307K
20260501T06Z_MSC_RDPS_Humidex_Sfc_RLatLon0.09_PT066H.grib2 2026-05-01 08:58 2.4M
20260501T06Z_MSC_RDPS_IcePellets-Accum12h_Sfc_RLatLon0.09_PT066H.grib2 2026-05-01 08:58 4.4K
20260501T06Z_MSC_RDPS_IcePellets-Accum1h_Sfc_RLatLon0.09_PT066H.grib2 2026-05-01 08:58 1.4K
20260501T06Z_MSC_RDPS_IcePellets-Accum24h_Sfc_RLatLon0.09_PT066H.grib2 2026-05-01 08:58 10K
20260501T06Z_MSC_RDPS_IcePellets-Accum3h_Sfc_RLatLon0.09_PT066H.grib2 2026-05-01 08:58 2.3K
20260501T06Z_MSC_RDPS_IcePellets-Accum6h_Sfc_RLatLon0.09_PT066H.grib2 2026-05-01 08:58 2.8K
20260501T06Z_MSC_RDPS_IcePellets-Accum_Sfc_RLatLon0.09_PT066H.grib2 2026-05-01 08:58 30K
20260501T06Z_MSC_RDPS_KIndex_Sfc_RLatLon0.09_PT066H.grib2 2026-05-01 08:58 2.5M
20260501T06Z_MSC_RDPS_LatentHeatNetFlux_Sfc_RLatLon0.09_PT066H.grib2 2026-05-01 08:58 358K
20260501T06Z_MSC_RDPS_LiftedIndex-MU-VT_IsbL-0500_RLatLon0.09_PT066H.grib2 2026-05-01 08:58 2.4M
20260501T06Z_MSC_RDPS_NetLongwaveRadiationFlux-Accum_Sfc_RLatLon0.09_PT066H.grib2 2026-05-01 08:58 601K
20260501T06Z_MSC_RDPS_NetShortwaveRadiationFlux-Accum_Sfc_RLatLon0.09_PT066H.grib2 2026-05-01 08:58 620K
20260501T06Z_MSC_RDPS_PlanetaryBoundaryLayerHeight_Sfc_RLatLon0.09_PT066H.grib2 2026-05-01 08:58 1.0M
20260501T06Z_MSC_RDPS_Precip-Accum12h_Sfc_RLatLon0.09_PT066H.grib2 2026-05-01 08:58 1.8M
20260501T06Z_MSC_RDPS_Precip-Accum1h_Sfc_RLatLon0.09_PT066H.grib2 2026-05-01 08:58 1.2M
20260501T06Z_MSC_RDPS_Precip-Accum24h_Sfc_RLatLon0.09_PT066H.grib2 2026-05-01 08:58 1.8M
20260501T06Z_MSC_RDPS_Precip-Accum3h_Sfc_RLatLon0.09_PT066H.grib2 2026-05-01 08:58 1.3M
20260501T06Z_MSC_RDPS_Precip-Accum6h_Sfc_RLatLon0.09_PT066H.grib2 2026-05-01 08:58 1.5M
20260501T06Z_MSC_RDPS_Precip-Accum_Sfc_RLatLon0.09_PT066H.grib2 2026-05-01 08:58 2.2M
20260501T06Z_MSC_RDPS_PrecipRate_Sfc_RLatLon0.09_PT066H.grib2 2026-05-01 08:58 173K
20260501T06Z_MSC_RDPS_PrecipType-Instant_Sfc_RLatLon0.09_PT066H.grib2 2026-05-01 08:58 578K
20260501T06Z_MSC_RDPS_Pressure-Trend3h_Sfc_RLatLon0.09_PT066H.grib2 2026-05-01 08:58 1.2M
20260501T06Z_MSC_RDPS_Pressure_MSL_RLatLon0.09_PT066H.grib2 2026-05-01 08:58 324K
20260501T06Z_MSC_RDPS_Pressure_PVU-1.5_RLatLon0.09_PT066H.grib2 2026-05-01 08:58 2.3M
20260501T06Z_MSC_RDPS_Pressure_PVU-1_RLatLon0.09_PT066H.grib2 2026-05-01 08:58 2.4M
20260501T06Z_MSC_RDPS_Pressure_PVU-2_RLatLon0.09_PT066H.grib2 2026-05-01 08:58 2.3M
20260501T06Z_MSC_RDPS_Pressure_Sfc_RLatLon0.09_PT066H.grib2 2026-05-01 08:58 497K
20260501T06Z_MSC_RDPS_RadiativeTemp_Sfc_RLatLon0.09_PT066H.grib2 2026-05-01 08:58 314K
20260501T06Z_MSC_RDPS_Rain-Accum12h_Sfc_RLatLon0.09_PT066H.grib2 2026-05-01 08:58 1.2M
20260501T06Z_MSC_RDPS_Rain-Accum1h_Sfc_RLatLon0.09_PT066H.grib2 2026-05-01 08:58 607K
20260501T06Z_MSC_RDPS_Rain-Accum24h_Sfc_RLatLon0.09_PT066H.grib2 2026-05-01 08:58 1.4M
20260501T06Z_MSC_RDPS_Rain-Accum3h_Sfc_RLatLon0.09_PT066H.grib2 2026-05-01 08:58 699K
20260501T06Z_MSC_RDPS_Rain-Accum6h_Sfc_RLatLon0.09_PT066H.grib2 2026-05-01 08:58 1.0M
20260501T06Z_MSC_RDPS_Rain-Accum_Sfc_RLatLon0.09_PT066H.grib2 2026-05-01 08:58 1.8M
20260501T06Z_MSC_RDPS_RelativeHumidity_AGL-2m_RLatLon0.09_PT066H.grib2 2026-05-01 08:58 1.0M
20260501T06Z_MSC_RDPS_RelativeHumidity_IsbL-0010_RLatLon0.09_PT066H.grib2 2026-05-01 08:58 612K
20260501T06Z_MSC_RDPS_RelativeHumidity_IsbL-0020_RLatLon0.09_PT066H.grib2 2026-05-01 08:58 656K
20260501T06Z_MSC_RDPS_RelativeHumidity_IsbL-0030_RLatLon0.09_PT066H.grib2 2026-05-01 08:58 605K
20260501T06Z_MSC_RDPS_RelativeHumidity_IsbL-0050_RLatLon0.09_PT066H.grib2 2026-05-01 08:58 306K
20260501T06Z_MSC_RDPS_RelativeHumidity_IsbL-0100_RLatLon0.09_PT066H.grib2 2026-05-01 08:58 280K
20260501T06Z_MSC_RDPS_RelativeHumidity_IsbL-0150_RLatLon0.09_PT066H.grib2 2026-05-01 08:58 411K
20260501T06Z_MSC_RDPS_RelativeHumidity_IsbL-0175_RLatLon0.09_PT066H.grib2 2026-05-01 08:58 472K
20260501T06Z_MSC_RDPS_RelativeHumidity_IsbL-0200_RLatLon0.09_PT066H.grib2 2026-05-01 08:58 553K
20260501T06Z_MSC_RDPS_RelativeHumidity_IsbL-0225_RLatLon0.09_PT066H.grib2 2026-05-01 08:58 622K
20260501T06Z_MSC_RDPS_RelativeHumidity_IsbL-0250_RLatLon0.09_PT066H.grib2 2026-05-01 08:58 685K
20260501T06Z_MSC_RDPS_RelativeHumidity_IsbL-0275_RLatLon0.09_PT066H.grib2 2026-05-01 08:58 707K
20260501T06Z_MSC_RDPS_RelativeHumidity_IsbL-0300_RLatLon0.09_PT066H.grib2 2026-05-01 08:58 751K
20260501T06Z_MSC_RDPS_RelativeHumidity_IsbL-0350_RLatLon0.09_PT066H.grib2 2026-05-01 08:58 777K
20260501T06Z_MSC_RDPS_RelativeHumidity_IsbL-0400_RLatLon0.09_PT066H.grib2 2026-05-01 08:58 790K
20260501T06Z_MSC_RDPS_RelativeHumidity_IsbL-0450_RLatLon0.09_PT066H.grib2 2026-05-01 08:58 794K
20260501T06Z_MSC_RDPS_RelativeHumidity_IsbL-0500_RLatLon0.09_PT066H.grib2 2026-05-01 08:58 803K
20260501T06Z_MSC_RDPS_RelativeHumidity_IsbL-0550_RLatLon0.09_PT066H.grib2 2026-05-01 08:58 821K
20260501T06Z_MSC_RDPS_RelativeHumidity_IsbL-0600_RLatLon0.09_PT066H.grib2 2026-05-01 08:58 837K
20260501T06Z_MSC_RDPS_RelativeHumidity_IsbL-0650_RLatLon0.09_PT066H.grib2 2026-05-01 08:58 849K
20260501T06Z_MSC_RDPS_RelativeHumidity_IsbL-0700_RLatLon0.09_PT066H.grib2 2026-05-01 08:58 869K
20260501T06Z_MSC_RDPS_RelativeHumidity_IsbL-0750_RLatLon0.09_PT066H.grib2 2026-05-01 08:58 915K
20260501T06Z_MSC_RDPS_RelativeHumidity_IsbL-0800_RLatLon0.09_PT066H.grib2 2026-05-01 08:58 1.0M
20260501T06Z_MSC_RDPS_RelativeHumidity_IsbL-0850_RLatLon0.09_PT066H.grib2 2026-05-01 08:58 1.0M
20260501T06Z_MSC_RDPS_RelativeHumidity_IsbL-0875_RLatLon0.09_PT066H.grib2 2026-05-01 08:58 1.0M
20260501T06Z_MSC_RDPS_RelativeHumidity_IsbL-0900_RLatLon0.09_PT066H.grib2 2026-05-01 08:58 1.1M
20260501T06Z_MSC_RDPS_RelativeHumidity_IsbL-0925_RLatLon0.09_PT066H.grib2 2026-05-01 08:58 1.1M
20260501T06Z_MSC_RDPS_RelativeHumidity_IsbL-0950_RLatLon0.09_PT066H.grib2 2026-05-01 08:58 1.0M
20260501T06Z_MSC_RDPS_RelativeHumidity_IsbL-0970_RLatLon0.09_PT066H.grib2 2026-05-01 08:58 1.0M
20260501T06Z_MSC_RDPS_RelativeHumidity_IsbL-0985_RLatLon0.09_PT066H.grib2 2026-05-01 08:58 1.0M
20260501T06Z_MSC_RDPS_RelativeHumidity_IsbL-1000_RLatLon0.09_PT066H.grib2 2026-05-01 08:58 1.0M
20260501T06Z_MSC_RDPS_RelativeHumidity_IsbL-1015_RLatLon0.09_PT066H.grib2 2026-05-01 08:58 1.0M
20260501T06Z_MSC_RDPS_Runoff-Accum_Sfc_RLatLon0.09_PT066H.grib2 2026-05-01 08:58 66K
20260501T06Z_MSC_RDPS_SWEATIndex_Sfc_RLatLon0.09_PT066H.grib2 2026-05-01 08:58 2.4M
20260501T06Z_MSC_RDPS_SeeingIndex_EAtm_RLatLon0.09_PT066H.grib2 2026-05-01 08:58 1.0M
20260501T06Z_MSC_RDPS_SensibleHeatNetFlux_Sfc_RLatLon0.09_PT066H.grib2 2026-05-01 08:58 314K
20260501T06Z_MSC_RDPS_ShowalterIndex_IsbL-0500_RLatLon0.09_PT066H.grib2 2026-05-01 08:58 2.6M
20260501T06Z_MSC_RDPS_SkyTransparencyIndex_EAtm_RLatLon0.09_PT066H.grib2 2026-05-01 08:58 727K
20260501T06Z_MSC_RDPS_Snow-Accum12h_Sfc_RLatLon0.09_PT066H.grib2 2026-05-01 08:58 590K
20260501T06Z_MSC_RDPS_Snow-Accum1h_Sfc_RLatLon0.09_PT066H.grib2 2026-05-01 08:58 441K
20260501T06Z_MSC_RDPS_Snow-Accum24h_Sfc_RLatLon0.09_PT066H.grib2 2026-05-01 08:58 642K
20260501T06Z_MSC_RDPS_Snow-Accum3h_Sfc_RLatLon0.09_PT066H.grib2 2026-05-01 08:58 443K
20260501T06Z_MSC_RDPS_Snow-Accum6h_Sfc_RLatLon0.09_PT066H.grib2 2026-05-01 08:58 535K
20260501T06Z_MSC_RDPS_Snow-Accum_Sfc_RLatLon0.09_PT066H.grib2 2026-05-01 08:58 747K
20260501T06Z_MSC_RDPS_SnowDensity_Sfc_RLatLon0.09_PT066H.grib2 2026-05-01 08:58 175K
20260501T06Z_MSC_RDPS_SnowDepth_Sfc_RLatLon0.09_PT066H.grib2 2026-05-01 08:58 653K
20260501T06Z_MSC_RDPS_SoilTemp_DBS-0to10cm_RLatLon0.09_PT066H.grib2 2026-05-01 08:58 247K
20260501T06Z_MSC_RDPS_SoilTemp_Sfc_RLatLon0.09_PT066H.grib2 2026-05-01 08:58 277K
20260501T06Z_MSC_RDPS_SoilVolumetricIceContent_Sfc_RLatLon0.09_PT066H.grib2 2026-05-01 08:58 157K
20260501T06Z_MSC_RDPS_SoilVolumetricWaterContent_DBS-0to10cm_RLatLon0.09_PT066H.grib2 2026-05-01 08:58 274K
20260501T06Z_MSC_RDPS_SoilVolumetricWaterContent_DBS-0to1cm_RLatLon0.09_PT066H.grib2 2026-05-01 08:58 342K
20260501T06Z_MSC_RDPS_SpecificHumidity_AGL-120m_RLatLon0.09_PT066H.grib2 2026-05-01 08:58 490K
20260501T06Z_MSC_RDPS_SpecificHumidity_AGL-2m_RLatLon0.09_PT066H.grib2 2026-05-01 08:58 664K
20260501T06Z_MSC_RDPS_SpecificHumidity_AGL-40m_RLatLon0.09_PT066H.grib2 2026-05-01 08:58 498K
20260501T06Z_MSC_RDPS_SpecificHumidity_AGL-80m_RLatLon0.09_PT066H.grib2 2026-05-01 08:58 492K
20260501T06Z_MSC_RDPS_SpecificHumidity_IsbL-0001_RLatLon0.09_PT066H.grib2 2026-05-01 08:58 370K
20260501T06Z_MSC_RDPS_SpecificHumidity_IsbL-0005_RLatLon0.09_PT066H.grib2 2026-05-01 08:58 363K
20260501T06Z_MSC_RDPS_SpecificHumidity_IsbL-0010_RLatLon0.09_PT066H.grib2 2026-05-01 08:58 397K
20260501T06Z_MSC_RDPS_SpecificHumidity_IsbL-0020_RLatLon0.09_PT066H.grib2 2026-05-01 08:58 373K
20260501T06Z_MSC_RDPS_SpecificHumidity_IsbL-0030_RLatLon0.09_PT066H.grib2 2026-05-01 08:58 367K
20260501T06Z_MSC_RDPS_SpecificHumidity_IsbL-0050_RLatLon0.09_PT066H.grib2 2026-05-01 08:58 471K
20260501T06Z_MSC_RDPS_SpecificHumidity_IsbL-0100_RLatLon0.09_PT066H.grib2 2026-05-01 08:58 422K
20260501T06Z_MSC_RDPS_SpecificHumidity_IsbL-0150_RLatLon0.09_PT066H.grib2 2026-05-01 08:58 451K
20260501T06Z_MSC_RDPS_SpecificHumidity_IsbL-0175_RLatLon0.09_PT066H.grib2 2026-05-01 08:58 437K
20260501T06Z_MSC_RDPS_SpecificHumidity_IsbL-0200_RLatLon0.09_PT066H.grib2 2026-05-01 08:58 458K
20260501T06Z_MSC_RDPS_SpecificHumidity_IsbL-0225_RLatLon0.09_PT066H.grib2 2026-05-01 08:58 461K
20260501T06Z_MSC_RDPS_SpecificHumidity_IsbL-0250_RLatLon0.09_PT066H.grib2 2026-05-01 08:58 562K
20260501T06Z_MSC_RDPS_SpecificHumidity_IsbL-0275_RLatLon0.09_PT066H.grib2 2026-05-01 08:58 476K
20260501T06Z_MSC_RDPS_SpecificHumidity_IsbL-0300_RLatLon0.09_PT066H.grib2 2026-05-01 08:58 451K
20260501T06Z_MSC_RDPS_SpecificHumidity_IsbL-0350_RLatLon0.09_PT066H.grib2 2026-05-01 08:58 450K
20260501T06Z_MSC_RDPS_SpecificHumidity_IsbL-0400_RLatLon0.09_PT066H.grib2 2026-05-01 08:58 528K
20260501T06Z_MSC_RDPS_SpecificHumidity_IsbL-0450_RLatLon0.09_PT066H.grib2 2026-05-01 08:58 577K
20260501T06Z_MSC_RDPS_SpecificHumidity_IsbL-0500_RLatLon0.09_PT066H.grib2 2026-05-01 08:58 514K
20260501T06Z_MSC_RDPS_SpecificHumidity_IsbL-0550_RLatLon0.09_PT066H.grib2 2026-05-01 08:58 587K
20260501T06Z_MSC_RDPS_SpecificHumidity_IsbL-0600_RLatLon0.09_PT066H.grib2 2026-05-01 08:58 635K
20260501T06Z_MSC_RDPS_SpecificHumidity_IsbL-0650_RLatLon0.09_PT066H.grib2 2026-05-01 08:58 552K
20260501T06Z_MSC_RDPS_SpecificHumidity_IsbL-0700_RLatLon0.09_PT066H.grib2 2026-05-01 08:58 593K
20260501T06Z_MSC_RDPS_SpecificHumidity_IsbL-0750_RLatLon0.09_PT066H.grib2 2026-05-01 08:58 645K
20260501T06Z_MSC_RDPS_SpecificHumidity_IsbL-0800_RLatLon0.09_PT066H.grib2 2026-05-01 08:58 730K
20260501T06Z_MSC_RDPS_SpecificHumidity_IsbL-0850_RLatLon0.09_PT066H.grib2 2026-05-01 08:58 807K
20260501T06Z_MSC_RDPS_SpecificHumidity_IsbL-0875_RLatLon0.09_PT066H.grib2 2026-05-01 08:58 834K
20260501T06Z_MSC_RDPS_SpecificHumidity_IsbL-0900_RLatLon0.09_PT066H.grib2 2026-05-01 08:58 847K
20260501T06Z_MSC_RDPS_SpecificHumidity_IsbL-0925_RLatLon0.09_PT066H.grib2 2026-05-01 08:58 708K
20260501T06Z_MSC_RDPS_SpecificHumidity_IsbL-0950_RLatLon0.09_PT066H.grib2 2026-05-01 08:58 708K
20260501T06Z_MSC_RDPS_SpecificHumidity_IsbL-0970_RLatLon0.09_PT066H.grib2 2026-05-01 08:58 700K
20260501T06Z_MSC_RDPS_SpecificHumidity_IsbL-0985_RLatLon0.09_PT066H.grib2 2026-05-01 08:58 692K
20260501T06Z_MSC_RDPS_SpecificHumidity_IsbL-1000_RLatLon0.09_PT066H.grib2 2026-05-01 08:58 687K
20260501T06Z_MSC_RDPS_SpecificHumidity_IsbL-1015_RLatLon0.09_PT066H.grib2 2026-05-01 08:58 677K
20260501T06Z_MSC_RDPS_SpecificHumidity_Sfc_RLatLon0.09_PT066H.grib2 2026-05-01 08:58 336K
20260501T06Z_MSC_RDPS_StormRelativeHelicity_EtaL-10000_RLatLon0.09_PT066H.grib2 2026-05-01 08:58 1.1M
20260501T06Z_MSC_RDPS_StormSeverityIndex_EtaL-10000_RLatLon0.09_PT066H.grib2 2026-05-01 08:58 1.2M
20260501T06Z_MSC_RDPS_Thickness_IsbL-0850to0700_RLatLon0.09_PT066H.grib2 2026-05-01 08:58 174K
20260501T06Z_MSC_RDPS_Thickness_IsbL-1000to0500_RLatLon0.09_PT066H.grib2 2026-05-01 08:58 195K
20260501T06Z_MSC_RDPS_Thickness_IsbL-1000to0850_RLatLon0.09_PT066H.grib2 2026-05-01 08:58 183K
20260501T06Z_MSC_RDPS_TotalCloudCover_Sfc_RLatLon0.09_PT066H.grib2 2026-05-01 08:58 657K
20260501T06Z_MSC_RDPS_TotalTotalsIndex_Sfc_RLatLon0.09_PT066H.grib2 2026-05-01 08:58 2.4M
20260501T06Z_MSC_RDPS_UVIndex-ClearSky_Sfc_RLatLon0.09_PT066H.grib2 2026-05-01 08:58 189K
20260501T06Z_MSC_RDPS_UVIndex_Sfc_RLatLon0.09_PT066H.grib2 2026-05-01 08:58 394K
20260501T06Z_MSC_RDPS_UpwardLongwaveRadiationFlux_NTAtm_RLatLon0.09_PT066H.grib2 2026-05-01 08:58 494K
20260501T06Z_MSC_RDPS_UpwardShortwaveRadiationFlux_NTAtm_RLatLon0.09_PT066H.grib2 2026-05-01 08:58 338K
20260501T06Z_MSC_RDPS_VerticalVelocity_IsbL-0250_RLatLon0.09_PT066H.grib2 2026-05-01 08:58 453K
20260501T06Z_MSC_RDPS_VerticalVelocity_IsbL-0500_RLatLon0.09_PT066H.grib2 2026-05-01 08:58 545K
20260501T06Z_MSC_RDPS_VerticalVelocity_IsbL-0700_RLatLon0.09_PT066H.grib2 2026-05-01 08:58 597K
20260501T06Z_MSC_RDPS_VerticalVelocity_IsbL-0850_RLatLon0.09_PT066H.grib2 2026-05-01 08:58 693K
20260501T06Z_MSC_RDPS_VerticalWindShear_EtaL-6500_RLatLon0.09_PT066H.grib2 2026-05-01 08:58 1.2M
20260501T06Z_MSC_RDPS_WindChill_Sfc_RLatLon0.09_PT066H.grib2 2026-05-01 08:58 1.1M
20260501T06Z_MSC_RDPS_WindDir_AGL-10m_RLatLon0.09_PT066H.grib2 2026-05-01 08:58 953K
20260501T06Z_MSC_RDPS_WindDir_AGL-120m_RLatLon0.09_PT066H.grib2 2026-05-01 08:58 600K
20260501T06Z_MSC_RDPS_WindDir_AGL-40m_RLatLon0.09_PT066H.grib2 2026-05-01 08:58 624K
20260501T06Z_MSC_RDPS_WindDir_AGL-80m_RLatLon0.09_PT066H.grib2 2026-05-01 08:58 610K
20260501T06Z_MSC_RDPS_WindDir_IsbL-0001_RLatLon0.09_PT066H.grib2 2026-05-01 08:58 286K
20260501T06Z_MSC_RDPS_WindDir_IsbL-0005_RLatLon0.09_PT066H.grib2 2026-05-01 08:58 371K
20260501T06Z_MSC_RDPS_WindDir_IsbL-0010_RLatLon0.09_PT066H.grib2 2026-05-01 08:58 395K
20260501T06Z_MSC_RDPS_WindDir_IsbL-0020_RLatLon0.09_PT066H.grib2 2026-05-01 08:58 433K
20260501T06Z_MSC_RDPS_WindDir_IsbL-0030_RLatLon0.09_PT066H.grib2 2026-05-01 08:58 421K
20260501T06Z_MSC_RDPS_WindDir_IsbL-0050_RLatLon0.09_PT066H.grib2 2026-05-01 08:58 404K
20260501T06Z_MSC_RDPS_WindDir_IsbL-0100_RLatLon0.09_PT066H.grib2 2026-05-01 08:58 412K
20260501T06Z_MSC_RDPS_WindDir_IsbL-0150_RLatLon0.09_PT066H.grib2 2026-05-01 08:58 413K
20260501T06Z_MSC_RDPS_WindDir_IsbL-0175_RLatLon0.09_PT066H.grib2 2026-05-01 08:58 435K
20260501T06Z_MSC_RDPS_WindDir_IsbL-0200_RLatLon0.09_PT066H.grib2 2026-05-01 08:58 453K
20260501T06Z_MSC_RDPS_WindDir_IsbL-0225_RLatLon0.09_PT066H.grib2 2026-05-01 08:58 456K
20260501T06Z_MSC_RDPS_WindDir_IsbL-0250_RLatLon0.09_PT066H.grib2 2026-05-01 08:58 456K
20260501T06Z_MSC_RDPS_WindDir_IsbL-0275_RLatLon0.09_PT066H.grib2 2026-05-01 08:58 479K
20260501T06Z_MSC_RDPS_WindDir_IsbL-0300_RLatLon0.09_PT066H.grib2 2026-05-01 08:58 475K
20260501T06Z_MSC_RDPS_WindDir_IsbL-0350_RLatLon0.09_PT066H.grib2 2026-05-01 08:58 499K
20260501T06Z_MSC_RDPS_WindDir_IsbL-0400_RLatLon0.09_PT066H.grib2 2026-05-01 08:58 525K
20260501T06Z_MSC_RDPS_WindDir_IsbL-0450_RLatLon0.09_PT066H.grib2 2026-05-01 08:58 533K
20260501T06Z_MSC_RDPS_WindDir_IsbL-0500_RLatLon0.09_PT066H.grib2 2026-05-01 08:58 536K
20260501T06Z_MSC_RDPS_WindDir_IsbL-0550_RLatLon0.09_PT066H.grib2 2026-05-01 08:58 544K
20260501T06Z_MSC_RDPS_WindDir_IsbL-0600_RLatLon0.09_PT066H.grib2 2026-05-01 08:58 565K
20260501T06Z_MSC_RDPS_WindDir_IsbL-0650_RLatLon0.09_PT066H.grib2 2026-05-01 08:58 602K
20260501T06Z_MSC_RDPS_WindDir_IsbL-0700_RLatLon0.09_PT066H.grib2 2026-05-01 08:58 643K
20260501T06Z_MSC_RDPS_WindDir_IsbL-0750_RLatLon0.09_PT066H.grib2 2026-05-01 08:58 689K
20260501T06Z_MSC_RDPS_WindDir_IsbL-0800_RLatLon0.09_PT066H.grib2 2026-05-01 08:58 755K
20260501T06Z_MSC_RDPS_WindDir_IsbL-0850_RLatLon0.09_PT066H.grib2 2026-05-01 08:58 845K
20260501T06Z_MSC_RDPS_WindDir_IsbL-0875_RLatLon0.09_PT066H.grib2 2026-05-01 08:58 878K
20260501T06Z_MSC_RDPS_WindDir_IsbL-0900_RLatLon0.09_PT066H.grib2 2026-05-01 08:58 898K
20260501T06Z_MSC_RDPS_WindDir_IsbL-0925_RLatLon0.09_PT066H.grib2 2026-05-01 08:58 907K
20260501T06Z_MSC_RDPS_WindDir_IsbL-0950_RLatLon0.09_PT066H.grib2 2026-05-01 08:58 905K
20260501T06Z_MSC_RDPS_WindDir_IsbL-0970_RLatLon0.09_PT066H.grib2 2026-05-01 08:58 910K
20260501T06Z_MSC_RDPS_WindDir_IsbL-0985_RLatLon0.09_PT066H.grib2 2026-05-01 08:58 919K
20260501T06Z_MSC_RDPS_WindDir_IsbL-1000_RLatLon0.09_PT066H.grib2 2026-05-01 08:58 932K
20260501T06Z_MSC_RDPS_WindDir_IsbL-1015_RLatLon0.09_PT066H.grib2 2026-05-01 08:58 945K
20260501T06Z_MSC_RDPS_WindGust-Max_AGL-10m_RLatLon0.09_PT066H.grib2 2026-05-01 08:58 1.0M
20260501T06Z_MSC_RDPS_WindGust-Min_AGL-10m_RLatLon0.09_PT066H.grib2 2026-05-01 08:58 1.0M
20260501T06Z_MSC_RDPS_WindGust_AGL-10m_RLatLon0.09_PT066H.grib2 2026-05-01 08:58 1.0M
20260501T06Z_MSC_RDPS_WindSpeed_AGL-10m_RLatLon0.09_PT066H.grib2 2026-05-01 08:58 832K
20260501T06Z_MSC_RDPS_WindSpeed_AGL-120m_RLatLon0.09_PT066H.grib2 2026-05-01 08:58 527K
20260501T06Z_MSC_RDPS_WindSpeed_AGL-40m_RLatLon0.09_PT066H.grib2 2026-05-01 08:58 533K
20260501T06Z_MSC_RDPS_WindSpeed_AGL-80m_RLatLon0.09_PT066H.grib2 2026-05-01 08:58 529K
20260501T06Z_MSC_RDPS_WindSpeed_IsbL-0001_RLatLon0.09_PT066H.grib2 2026-05-01 08:58 331K
20260501T06Z_MSC_RDPS_WindSpeed_IsbL-0005_RLatLon0.09_PT066H.grib2 2026-05-01 08:58 347K
20260501T06Z_MSC_RDPS_WindSpeed_IsbL-0010_RLatLon0.09_PT066H.grib2 2026-05-01 08:58 367K
20260501T06Z_MSC_RDPS_WindSpeed_IsbL-0020_RLatLon0.09_PT066H.grib2 2026-05-01 08:58 421K
20260501T06Z_MSC_RDPS_WindSpeed_IsbL-0030_RLatLon0.09_PT066H.grib2 2026-05-01 08:58 324K
20260501T06Z_MSC_RDPS_WindSpeed_IsbL-0050_RLatLon0.09_PT066H.grib2 2026-05-01 08:58 351K
20260501T06Z_MSC_RDPS_WindSpeed_IsbL-0100_RLatLon0.09_PT066H.grib2 2026-05-01 08:58 478K
20260501T06Z_MSC_RDPS_WindSpeed_IsbL-0150_RLatLon0.09_PT066H.grib2 2026-05-01 08:58 384K
20260501T06Z_MSC_RDPS_WindSpeed_IsbL-0175_RLatLon0.09_PT066H.grib2 2026-05-01 08:58 430K
20260501T06Z_MSC_RDPS_WindSpeed_IsbL-0200_RLatLon0.09_PT066H.grib2 2026-05-01 08:58 446K
20260501T06Z_MSC_RDPS_WindSpeed_IsbL-0225_RLatLon0.09_PT066H.grib2 2026-05-01 08:58 453K
20260501T06Z_MSC_RDPS_WindSpeed_IsbL-0250_RLatLon0.09_PT066H.grib2 2026-05-01 08:58 455K
20260501T06Z_MSC_RDPS_WindSpeed_IsbL-0275_RLatLon0.09_PT066H.grib2 2026-05-01 08:58 472K
20260501T06Z_MSC_RDPS_WindSpeed_IsbL-0300_RLatLon0.09_PT066H.grib2 2026-05-01 08:58 467K
20260501T06Z_MSC_RDPS_WindSpeed_IsbL-0350_RLatLon0.09_PT066H.grib2 2026-05-01 08:58 478K
20260501T06Z_MSC_RDPS_WindSpeed_IsbL-0400_RLatLon0.09_PT066H.grib2 2026-05-01 08:58 465K
20260501T06Z_MSC_RDPS_WindSpeed_IsbL-0450_RLatLon0.09_PT066H.grib2 2026-05-01 08:58 467K
20260501T06Z_MSC_RDPS_WindSpeed_IsbL-0500_RLatLon0.09_PT066H.grib2 2026-05-01 08:58 467K
20260501T06Z_MSC_RDPS_WindSpeed_IsbL-0550_RLatLon0.09_PT066H.grib2 2026-05-01 08:58 584K
20260501T06Z_MSC_RDPS_WindSpeed_IsbL-0600_RLatLon0.09_PT066H.grib2 2026-05-01 08:58 591K
20260501T06Z_MSC_RDPS_WindSpeed_IsbL-0650_RLatLon0.09_PT066H.grib2 2026-05-01 08:58 609K
20260501T06Z_MSC_RDPS_WindSpeed_IsbL-0700_RLatLon0.09_PT066H.grib2 2026-05-01 08:58 675K
20260501T06Z_MSC_RDPS_WindSpeed_IsbL-0750_RLatLon0.09_PT066H.grib2 2026-05-01 08:58 703K
20260501T06Z_MSC_RDPS_WindSpeed_IsbL-0800_RLatLon0.09_PT066H.grib2 2026-05-01 08:58 751K
20260501T06Z_MSC_RDPS_WindSpeed_IsbL-0850_RLatLon0.09_PT066H.grib2 2026-05-01 08:58 812K
20260501T06Z_MSC_RDPS_WindSpeed_IsbL-0875_RLatLon0.09_PT066H.grib2 2026-05-01 08:58 836K
20260501T06Z_MSC_RDPS_WindSpeed_IsbL-0900_RLatLon0.09_PT066H.grib2 2026-05-01 08:58 849K
20260501T06Z_MSC_RDPS_WindSpeed_IsbL-0925_RLatLon0.09_PT066H.grib2 2026-05-01 08:58 861K
20260501T06Z_MSC_RDPS_WindSpeed_IsbL-0950_RLatLon0.09_PT066H.grib2 2026-05-01 08:58 860K
20260501T06Z_MSC_RDPS_WindSpeed_IsbL-0970_RLatLon0.09_PT066H.grib2 2026-05-01 08:58 855K
20260501T06Z_MSC_RDPS_WindSpeed_IsbL-0985_RLatLon0.09_PT066H.grib2 2026-05-01 08:58 851K
20260501T06Z_MSC_RDPS_WindSpeed_IsbL-1000_RLatLon0.09_PT066H.grib2 2026-05-01 08:58 843K
20260501T06Z_MSC_RDPS_WindSpeed_IsbL-1015_RLatLon0.09_PT066H.grib2 2026-05-01 08:58 833K
20260501T06Z_MSC_RDPS_WindU_AGL-10m_RLatLon0.09_PT066H.grib2 2026-05-01 08:58 428K
20260501T06Z_MSC_RDPS_WindU_AGL-120m_RLatLon0.09_PT066H.grib2 2026-05-01 08:58 411K
20260501T06Z_MSC_RDPS_WindU_AGL-40m_RLatLon0.09_PT066H.grib2 2026-05-01 08:58 530K
20260501T06Z_MSC_RDPS_WindU_AGL-80m_RLatLon0.09_PT066H.grib2 2026-05-01 08:58 528K
20260501T06Z_MSC_RDPS_WindU_IsbL-0001_RLatLon0.09_PT066H.grib2 2026-05-01 08:58 245K
20260501T06Z_MSC_RDPS_WindU_IsbL-0005_RLatLon0.09_PT066H.grib2 2026-05-01 08:58 283K
20260501T06Z_MSC_RDPS_WindU_IsbL-0010_RLatLon0.09_PT066H.grib2 2026-05-01 08:58 297K
20260501T06Z_MSC_RDPS_WindU_IsbL-0020_RLatLon0.09_PT066H.grib2 2026-05-01 08:58 314K
20260501T06Z_MSC_RDPS_WindU_IsbL-0030_RLatLon0.09_PT066H.grib2 2026-05-01 08:58 355K
20260501T06Z_MSC_RDPS_WindU_IsbL-0050_RLatLon0.09_PT066H.grib2 2026-05-01 08:58 380K
20260501T06Z_MSC_RDPS_WindU_IsbL-0100_RLatLon0.09_PT066H.grib2 2026-05-01 08:58 433K
20260501T06Z_MSC_RDPS_WindU_IsbL-0150_RLatLon0.09_PT066H.grib2 2026-05-01 08:58 400K
20260501T06Z_MSC_RDPS_WindU_IsbL-0175_RLatLon0.09_PT066H.grib2 2026-05-01 08:58 422K
20260501T06Z_MSC_RDPS_WindU_IsbL-0200_RLatLon0.09_PT066H.grib2 2026-05-01 08:58 341K
20260501T06Z_MSC_RDPS_WindU_IsbL-0225_RLatLon0.09_PT066H.grib2 2026-05-01 08:58 346K
20260501T06Z_MSC_RDPS_WindU_IsbL-0250_RLatLon0.09_PT066H.grib2 2026-05-01 08:58 346K
20260501T06Z_MSC_RDPS_WindU_IsbL-0275_RLatLon0.09_PT066H.grib2 2026-05-01 08:58 359K
20260501T06Z_MSC_RDPS_WindU_IsbL-0300_RLatLon0.09_PT066H.grib2 2026-05-01 08:58 455K
20260501T06Z_MSC_RDPS_WindU_IsbL-0350_RLatLon0.09_PT066H.grib2 2026-05-01 08:58 465K
20260501T06Z_MSC_RDPS_WindU_IsbL-0400_RLatLon0.09_PT066H.grib2 2026-05-01 08:58 470K
20260501T06Z_MSC_RDPS_WindU_IsbL-0450_RLatLon0.09_PT066H.grib2 2026-05-01 08:58 472K
20260501T06Z_MSC_RDPS_WindU_IsbL-0500_RLatLon0.09_PT066H.grib2 2026-05-01 08:58 472K
20260501T06Z_MSC_RDPS_WindU_IsbL-0550_RLatLon0.09_PT066H.grib2 2026-05-01 08:58 454K
20260501T06Z_MSC_RDPS_WindU_IsbL-0600_RLatLon0.09_PT066H.grib2 2026-05-01 08:58 462K
20260501T06Z_MSC_RDPS_WindU_IsbL-0650_RLatLon0.09_PT066H.grib2 2026-05-01 08:58 479K
20260501T06Z_MSC_RDPS_WindU_IsbL-0700_RLatLon0.09_PT066H.grib2 2026-05-01 08:58 500K
20260501T06Z_MSC_RDPS_WindU_IsbL-0750_RLatLon0.09_PT066H.grib2 2026-05-01 08:58 525K
20260501T06Z_MSC_RDPS_WindU_IsbL-0800_RLatLon0.09_PT066H.grib2 2026-05-01 08:58 565K
20260501T06Z_MSC_RDPS_WindU_IsbL-0850_RLatLon0.09_PT066H.grib2 2026-05-01 08:58 618K
20260501T06Z_MSC_RDPS_WindU_IsbL-0875_RLatLon0.09_PT066H.grib2 2026-05-01 08:58 639K
20260501T06Z_MSC_RDPS_WindU_IsbL-0900_RLatLon0.09_PT066H.grib2 2026-05-01 08:58 649K
20260501T06Z_MSC_RDPS_WindU_IsbL-0925_RLatLon0.09_PT066H.grib2 2026-05-01 08:58 656K
20260501T06Z_MSC_RDPS_WindU_IsbL-0950_RLatLon0.09_PT066H.grib2 2026-05-01 08:58 652K
20260501T06Z_MSC_RDPS_WindU_IsbL-0970_RLatLon0.09_PT066H.grib2 2026-05-01 08:58 649K
20260501T06Z_MSC_RDPS_WindU_IsbL-0985_RLatLon0.09_PT066H.grib2 2026-05-01 08:58 646K
20260501T06Z_MSC_RDPS_WindU_IsbL-1000_RLatLon0.09_PT066H.grib2 2026-05-01 08:58 779K
20260501T06Z_MSC_RDPS_WindU_IsbL-1015_RLatLon0.09_PT066H.grib2 2026-05-01 08:58 772K
20260501T06Z_MSC_RDPS_WindV_AGL-10m_RLatLon0.09_PT066H.grib2 2026-05-01 08:58 427K
20260501T06Z_MSC_RDPS_WindV_AGL-120m_RLatLon0.09_PT066H.grib2 2026-05-01 08:58 410K
20260501T06Z_MSC_RDPS_WindV_AGL-40m_RLatLon0.09_PT066H.grib2 2026-05-01 08:58 530K
20260501T06Z_MSC_RDPS_WindV_AGL-80m_RLatLon0.09_PT066H.grib2 2026-05-01 08:58 527K
20260501T06Z_MSC_RDPS_WindV_IsbL-0001_RLatLon0.09_PT066H.grib2 2026-05-01 08:58 247K
20260501T06Z_MSC_RDPS_WindV_IsbL-0005_RLatLon0.09_PT066H.grib2 2026-05-01 08:58 287K
20260501T06Z_MSC_RDPS_WindV_IsbL-0010_RLatLon0.09_PT066H.grib2 2026-05-01 08:58 389K
20260501T06Z_MSC_RDPS_WindV_IsbL-0020_RLatLon0.09_PT066H.grib2 2026-05-01 08:58 318K
20260501T06Z_MSC_RDPS_WindV_IsbL-0030_RLatLon0.09_PT066H.grib2 2026-05-01 08:58 317K
20260501T06Z_MSC_RDPS_WindV_IsbL-0050_RLatLon0.09_PT066H.grib2 2026-05-01 08:58 344K
20260501T06Z_MSC_RDPS_WindV_IsbL-0100_RLatLon0.09_PT066H.grib2 2026-05-01 08:58 334K
20260501T06Z_MSC_RDPS_WindV_IsbL-0150_RLatLon0.09_PT066H.grib2 2026-05-01 08:58 400K
20260501T06Z_MSC_RDPS_WindV_IsbL-0175_RLatLon0.09_PT066H.grib2 2026-05-01 08:58 327K
20260501T06Z_MSC_RDPS_WindV_IsbL-0200_RLatLon0.09_PT066H.grib2 2026-05-01 08:58 366K
20260501T06Z_MSC_RDPS_WindV_IsbL-0225_RLatLon0.09_PT066H.grib2 2026-05-01 08:58 370K
20260501T06Z_MSC_RDPS_WindV_IsbL-0250_RLatLon0.09_PT066H.grib2 2026-05-01 08:58 370K
20260501T06Z_MSC_RDPS_WindV_IsbL-0275_RLatLon0.09_PT066H.grib2 2026-05-01 08:58 382K
20260501T06Z_MSC_RDPS_WindV_IsbL-0300_RLatLon0.09_PT066H.grib2 2026-05-01 08:58 378K
20260501T06Z_MSC_RDPS_WindV_IsbL-0350_RLatLon0.09_PT066H.grib2 2026-05-01 08:58 360K
20260501T06Z_MSC_RDPS_WindV_IsbL-0400_RLatLon0.09_PT066H.grib2 2026-05-01 08:58 365K
20260501T06Z_MSC_RDPS_WindV_IsbL-0450_RLatLon0.09_PT066H.grib2 2026-05-01 08:58 367K
20260501T06Z_MSC_RDPS_WindV_IsbL-0500_RLatLon0.09_PT066H.grib2 2026-05-01 08:58 367K
20260501T06Z_MSC_RDPS_WindV_IsbL-0550_RLatLon0.09_PT066H.grib2 2026-05-01 08:58 471K
20260501T06Z_MSC_RDPS_WindV_IsbL-0600_RLatLon0.09_PT066H.grib2 2026-05-01 08:58 478K
20260501T06Z_MSC_RDPS_WindV_IsbL-0650_RLatLon0.09_PT066H.grib2 2026-05-01 08:58 494K
20260501T06Z_MSC_RDPS_WindV_IsbL-0700_RLatLon0.09_PT066H.grib2 2026-05-01 08:58 513K
20260501T06Z_MSC_RDPS_WindV_IsbL-0750_RLatLon0.09_PT066H.grib2 2026-05-01 08:58 536K
20260501T06Z_MSC_RDPS_WindV_IsbL-0800_RLatLon0.09_PT066H.grib2 2026-05-01 08:58 574K
20260501T06Z_MSC_RDPS_WindV_IsbL-0850_RLatLon0.09_PT066H.grib2 2026-05-01 08:58 624K
20260501T06Z_MSC_RDPS_WindV_IsbL-0875_RLatLon0.09_PT066H.grib2 2026-05-01 08:58 645K
20260501T06Z_MSC_RDPS_WindV_IsbL-0900_RLatLon0.09_PT066H.grib2 2026-05-01 08:58 648K
20260501T06Z_MSC_RDPS_WindV_IsbL-0925_RLatLon0.09_PT066H.grib2 2026-05-01 08:58 656K
20260501T06Z_MSC_RDPS_WindV_IsbL-0950_RLatLon0.09_PT066H.grib2 2026-05-01 08:58 654K
20260501T06Z_MSC_RDPS_WindV_IsbL-0970_RLatLon0.09_PT066H.grib2 2026-05-01 08:58 651K
20260501T06Z_MSC_RDPS_WindV_IsbL-0985_RLatLon0.09_PT066H.grib2 2026-05-01 08:58 787K
20260501T06Z_MSC_RDPS_WindV_IsbL-1000_RLatLon0.09_PT066H.grib2 2026-05-01 08:58 779K
20260501T06Z_MSC_RDPS_WindV_IsbL-1015_RLatLon0.09_PT066H.grib2 2026-05-01 08:58 771K